Regional Weather Roundup
Issued by NWS Newport/Morehead, NC

Home | Current Version | Previous Version | Text Only | Print | Product List | Glossary On
Versions: 1 2 3 4 5 6 7 8 9 10 11 12 13 14 15 16 17 18 19 20 21 22 23 24 25 26 27 28 29 30 31 32 33 34 35 36 37 38 39 40 41 42 43 44 45 46 47 48 49 50
000
ASUS42 KMHX 162125
RWRMHX
WEATHER ROUNDUP FOR EASTERN NORTH CAROLINA
NATIONAL WEATHER SERVICE NEWPORT/MOREHEAD CITY NC
400 PM EST MON JAN 16 2017

NOTE: "FAIR" INDICATES FEW OR NO CLOUDS BELOW 12,000 FEET
WITH NO SIGNIFICANT WEATHER AND/OR OBSTRUCTIONS TO VISIBILITY

NCZ015>017-031-032-045>047-102-103-162200-
NORTH COAST

CITY           SKY/WX    TMP DP  RH WIND       PRES   REMARKS
EDENTON        CLOUDY    49  40  72 CALM      30.39S
ELIZABETH CITY CLOUDY    48  39  71 E5        30.38F
KITTY HAWK     NOT AVBL
MANTEO         CLOUDY    47  40  74 NE7       30.38S

$$

NCZ045>047-081-094-103-104-162200-
CENTRAL COAST

CITY           SKY/WX    TMP DP  RH WIND       PRES   REMARKS
FRISCO         CLOUDY    50  42  74 NE8       30.36F

$$

NCZ095-097-098-100-101-162200-
SOUTHERN COAST

CITY           SKY/WX    TMP DP  RH WIND       PRES   REMARKS
BEAUFORT       CLOUDY    53  45  74 NE9       30.36S
CEDAR ISLAND   NOT AVBL
JACKSONVILLE   CLOUDY    55  45  68 NE3       30.36R
PINEY ISLAND   CLEAR    N/A N/A N/A NE9       30.36F
WILMINGTON     CLOUDY    57  47  69 NE6       30.35S


$$

NCZ011>013-027>030-043-044-078>080-089-090>093-098-162200-
COASTAL PLAIN

CITY           SKY/WX    TMP DP  RH WIND       PRES   REMARKS
AHOSKIE          N/A     45  38  78 CALM      30.39S
CLINTON        CLOUDY    52  45  76 CALM      30.36F
ELIZABETHTOWN  PTSUNNY   54  46  74 CALM      30.36R HAZE
GOLDSBORO      CLOUDY    51  39  63 CALM      30.35S
GREENVILLE     CLOUDY    50  41  71 CALM      30.38S
HAVELOCK       CLOUDY    53  43  68 E8        30.37S
KENANSVILLE    CLOUDY    52  41  66 CALM      30.37S
KINSTON        CLOUDY    52  39  62 E5        30.37S
NEW BERN       CLOUDY    54  42  64 NE6       30.37S
RICHLANDS      CLOUDY    54  45  71 E5        30.37R
ROCKY MOUNT    CLOUDY    49  39  68 CALM      30.37F
WASHINGTON     CLOUDY    51  43  72 NE5       30.37F
WHITEVILLE     CLOUDY    56  47  72 E5        30.35R

$$

AMZ130-135-150-152-154-156-158-170-250-252-270-ANZ085-086-088-633-658-670-162200-
MARINE OBSERVATIONS

STATION/POSITION TIME  TEMP    WIND        PRES    WAVE   SWELL
                       AIR SEA DIR/SP/G            HT/PER HT/PER
                 (UTC) (F)     (DEG/KT/KT) (MB)    (FT/S) (FT/S)
CHESAPEAKE LIGHT NOT AVBL
64 E VA BEACH    2050   52 58   50/  8/ 10 1028.4    3/ 8   3/ 8
DUCK             2100   44 44  350/  7/  7 1028.3
2 E DUCK         2100      44                N/A     3/ 8
OREGON INLET     2100   47 47  360/  8/ 10 1028.4
13E OREGON INLT  NOT AVBL
HATTERAS CG      2100   47 54   10/ 13/ 15 1027.6
DIAMOND BUOY     2050   55 74   10/ 16/ 19 1027.6    4/ 8   3/ 8
CAPE LOOKOUT     2100   52      30/ 14/ 15 1027.7
BEAUFORT LAB     2100   52 49   20/  8/ 10 1027.2
30 SE NEW RVR IN 2108   54 63   50/ 12/ 16 1028.0
30 SE NEW RVR IN 2113      63                N/A     4/11   2/11
27 SE WRIGHTSVLE 2108   58 69   60/ 14/ 19 1027.2
5 SE WRIGHTSVLE  2108   53      50/ 10/ 16 1027.9
225 S CAPE HAT   2050   70 72  130/  6/  8 1026.3    4/ 8   3/ 8
41 SE CHARLESTON 2050   68 71   70/ 14/ 17 1025.1    4/ 5   2/ 8

$$




USA.gov is the U.S. government's official web portal to all federal, state and local government web resources and services.